Tracking 25620 objects as of 18-May-2022
HD Live streaming from Space Station
objects crossing your sky now

COSMOS 1375 DEB

Track COSMOS 1375 DEB now!
10-day predictions


NORAD ID: 17804
Int'l Code: 1982-055AW
Perigee: 891.3 km
Apogee: 931.2 km
Inclination: 65.8 °
Period: 103.1 minutes
Semi major axis: 7282 km
RCS: 0.0158 m2 (small)
Launch date: June 6, 1982
Source: Commonwealth of Independent States (former USSR) (CIS)
Launch site: PLESETSK MISSILE AND SPACE COMPLEX (PKMTR)

Note: This is SATELLITE DEBRIS
aabbcc
Your satellite tracking list
Your tracking list is empty




NASA's NSSDC Master Catalog

Two Line Element Set (TLE):
1 17804U 82055AW  22137.71196240  .00001337  00000-0  10147-2 0  9994
2 17804  65.8182 242.6523 0027397 258.3657 253.3278 13.97035926848601
Source of the keplerian elements: AFSPC